Terug naar catalogus

DELTA 1 DEB

ActiefSSO
NORAD 21450·DEBRIS·🇺🇸 United States

Gelanceerd Jun 12, 1975 vanaf Vandenberg Space Force Base

Loading…

Volgende Passages (komende 24 uur)

TLE

VersSource: Space-Track

Epoch: Sep 14, 2026, 04:35 UTC

1 21450U 75052EJ  26257.19107750  .00000116  00000-0  31012-3 0  9991
2 21450  99.8346 140.0613 0060277  38.6731 112.8857 13.35416337721297

Volg DELTA 1 DEB in realtime met AllMySat

Download on the App Store